星链-2622 (STARLINK-2622 )

导读

STARLINK-2622是美国SpaceX星链星座的成员,于北京时间2021年5月4日发射升空。星链计划旨在搭建全球卫星互联网,为偏远地区、灾害场景提供网络服务。该卫星入轨后加入近地轨道卫星星座,承担星链网络的通信信号传输任务,推进星链星座全球覆盖的组网进程。

基本信息
目录编号:
48360
目录名称:
STARLINK-2622
国际标识:
2021-038H
轨道中心:
EARTH
卫星名称:
星链-2622
卫星全名:
星链-2622 (STARLINK-2622 )
卫星状态:
在轨 (已飞行1949 天)
发射日期:
2021-05-04 UTC
国别 :
美国 (US)
星等 :
--
轨道信息
数据来源 国际轨道数据
星历时间: 2026-09-03T17:33:00+0800
1天前
查看轨道信息
半长轴: 6848.913km
偏心率: 0.0001454
轨道倾角: 53.159°
近地点辐角 91.173°
升交点赤经 251.163°
平近点角 268.944°
近地点: 469.78km
远地点: 471.772km
周期: 94.014分钟
每日圈数: 15.316882
详细信息
固有亮度:
5
最大亮度:
2.5
卫星平台:
Starlink V1.0
覆盖范围:
全球
运营商:
太空探索技术公司
运营商所在国:
美国
制造商(研发单位):
太空探索技术公司
制造商所在国:
美国
使用方式:
暂无
卫星简介
星链(Starlink)计划是由太空探索技术公司(SpaceX)提出的一个巨型低轨卫星互联网星座项目,计划在2019年至2024年间在太空搭建由约1.2万颗卫星组成的“星链”网络,其中1584颗将部署在地球上空550千米处的近地轨道,并从2020年开始工作。该卫星仍在工作。
2D轨道图
3D轨道图
轨道高度分析图
轨道倾角分析图
轨道综合分析图
查看轨道综合分析图
交会数据列表
事件ID 空间交会对象 最接近时刻(TCA) 交会距离 交会风险概率(CRP) 交会风险指数(CRI) 操作
CDM_260906-214004-836006-275921
2026-09-06T
21:40:33+0000
0.212 km
中距离
4.66735E-4 高风险 0.88
CDM_260906-161104-836006-275921
2026-09-06T
16:11:42+0000
1.422 km
极远距离
3.169447E-6 低风险 0.45
CDM_260904-100404-836006-580621
2026-09-04T
10:04:55+0000
2.283 km
极远距离
2.030766E-6 低风险 0.41
CDM_260906-174504-836006-275921
2026-09-06T
17:45:40+0000
1.829 km
极远距离
1.530746E-6 低风险 0.39